ISS DEB (SEDA-AP) (43870 NORAD) Tracking and Keplerian Element Data

This shows tracking and keplerian element data for the satellite.

Feedback or suggestion? Click here.




ElementValue
Catalog43870
NameISS DEB (SEDA-AP)
Epoch Orbit3279
Epoch Day201.48188817
Epoch Year2019
RAAN192.3718
Inclination51.6407
Eccentricity0.0003447
Argument of Perigee234.9835
Mean Anonmoly125.0826
Mean Motion15.55495768
Decay Rate1.382E-05
L11 43870U 98067PU 19201.48188817 .00001382 00000-0 26859-4 0 9998
L22 43870 51.6407 192.3718 0003447 234.9835 125.0826 15.55495768 32790

Live tracking and technical data element details for ISS DEB (SEDA-AP) (NORAD 43870). ISS DEB (SEDA-AP) can be tracked NOW for your location showing map with azimuth and elevation plus other details from your city location.

Track the satellite on the map from your city or location and see movement details for azimuth, elevation, latitude, longitude, range, height, and movement on the map or in text.







IsCatalogInMostPopularTable: catalog: 43870, numindb: 134
Update: records affected: 1



GetName: 43870 ISS DEB (SEDA-AP)

Hit Count: updated at: Mon, 22 Jul 2019 03:56:28 GMT